Weather History for Fort Lauderdale, FL

Change the Weather History Date:

Monday, June 17, 2013

  Actual Average Record
Temperature  
Mean Temperature 85 °F -  
Max Temperature 90 °F 89 °F 95 °F (1958)
Min Temperature 80 °F 73 °F 67 °F (1967)
Cooling Degree Days 20    
Growing Degree Days 35 (Base 50)    
Moisture  
Dew Point 74 °F    
Average Humidity 70    
Maximum Humidity 81    
Minimum Humidity 57    
Precipitation  
Precipitation 0.00 in - - ()
Sea Level Pressure  
Sea Level Pressure 30.06 in    
Wind  
Wind Speed 7 mph (SE)    
Max Wind Speed 14 mph    
Max Gust Speed 16 mph    
Visibility 10 miles    
Events      
Averages and records for this station are not official NWS values.
T = Trace of Precipitation, MM = Missing Value Source: NWS Daily Summary

Daily Weather History Graph

Daily Weather History Graph

Search for Another Location

Airport:

Trip Planner

Search our weather history database for the weather conditions in past years. The results will help you decide how hot, cold, wet, or windy it might be!

Date:

Astronomy

Jun. 17, 2013 Rise Set
Actual Time 6:28 AM EDT 8:15 PM EDT
Civil Twilight 6:02 AM EDT 8:41 PM EDT
Nautical Twilight 5:30 AM EDT 9:12 PM EDT
Astronomical Twilight 4:57 AM EDT 9:45 PM EDT
Moon 2:19 PM EDT (6/17) 1:32 AM EDT (6/17)
Length of Visible Light 14h 39m
Length of Day
13h 46m
First Quarter, 60% of the Moon is Illuminated
Jun 17
First Quarter
Jun 23
Full
Jun 30
Last Quarter
Jul 8
New
Jul 15
First Quarter

Hourly Weather History & Observations

Time (EDT) Temp. Heat Index Dew Point Humidity Pressure Visibility Wind Dir Wind Speed Gust Speed Precip Events Conditions
12:53 AM 82.9 °F 88.8 °F 73.0 °F 72% 30.09 in 10.0 mi SE 5.8 mph - N/A   Clear
1:53 AM 82.9 °F 90.2 °F 75.0 °F 77% 30.06 in 10.0 mi SE 9.2 mph - N/A   Clear
2:53 AM 82.9 °F 90.2 °F 75.0 °F 77% 30.06 in 10.0 mi SE 6.9 mph - N/A   Partly Cloudy
3:53 AM 81.0 °F 86.2 °F 73.9 °F 79% 30.04 in 10.0 mi SE 3.5 mph - N/A   Clear
4:53 AM 81.0 °F 85.8 °F 73.0 °F 77% 30.02 in 10.0 mi SE 4.6 mph - N/A   Clear
5:53 AM 81.0 °F 85.8 °F 73.0 °F 77% 30.04 in 10.0 mi ESE 3.5 mph - N/A   Partly Cloudy
6:53 AM 80.1 °F 84.5 °F 73.9 °F 81% 30.06 in 10.0 mi Calm Calm - N/A   Scattered Clouds
7:53 AM 82.9 °F 90.2 °F 75.0 °F 77% 30.08 in 10.0 mi Calm Calm - N/A   Scattered Clouds
8:53 AM 84.9 °F 92.1 °F 73.9 °F 69% 30.07 in 10.0 mi SE 5.8 mph - N/A   Scattered Clouds
9:53 AM 87.1 °F 94.5 °F 73.0 °F 63% 30.07 in 10.0 mi ESE 10.4 mph - N/A   Scattered Clouds
10:53 AM 88.0 °F 95.6 °F 73.0 °F 61% 30.07 in 10.0 mi ESE 8.1 mph - N/A   Scattered Clouds
11:53 AM 88.0 °F 95.6 °F 73.0 °F 61% 30.08 in 10.0 mi ESE 9.2 mph - N/A   Unknown
12:53 PM 88.0 °F 95.6 °F 73.0 °F 61% 30.09 in 10.0 mi East 10.4 mph - N/A   Scattered Clouds
1:53 PM 89.1 °F 97.0 °F 73.0 °F 59% 30.07 in 10.0 mi East 12.7 mph - N/A   Scattered Clouds
2:53 PM 90.0 °F 97.9 °F 73.0 °F 57% 30.06 in 10.0 mi ESE 12.7 mph 16.1 mph N/A   Scattered Clouds
3:53 PM 89.1 °F 97.0 °F 73.0 °F 59% 30.06 in 10.0 mi ESE 13.8 mph - N/A   Scattered Clouds
4:53 PM 87.1 °F 95.4 °F 73.9 °F 65% 30.04 in 10.0 mi SE 10.4 mph - N/A   Mostly Cloudy
5:53 PM 87.1 °F 96.3 °F 75.0 °F 67% 30.04 in 10.0 mi ESE 12.7 mph - N/A   Scattered Clouds
6:53 PM 86.0 °F 93.0 °F 73.0 °F 65% 30.04 in 10.0 mi ESE 13.8 mph - N/A   Scattered Clouds
7:53 PM 84.0 °F 91.2 °F 73.9 °F 72% 30.04 in 10.0 mi SE 12.7 mph - N/A   Scattered Clouds
8:53 PM 82.9 °F 90.2 °F 75.0 °F 77% 30.05 in 10.0 mi SE 9.2 mph - N/A   Clear
9:53 PM 82.9 °F 90.2 °F 75.0 °F 77% 30.08 in 10.0 mi SE 8.1 mph - N/A   Clear
10:53 PM 82.9 °F 90.8 °F 75.9 °F 79% 30.09 in 10.0 mi SE 6.9 mph - N/A   Partly Cloudy
11:53 PM 82.9 °F 90.8 °F 75.9 °F 79% 30.09 in 10.0 mi SE 4.6 mph - N/A   Partly Cloudy